CW9803 Weather Reports


time (UTC)temp
C
wind
direction
speed
KPH
gust
KPH
rain 1hr
cm
rain 24hr
cm
rain mn
cm
humidity
%
barometer
mb
20260831203424 28 109 3.2 4.8 0.00 0.00 0.00 20 1010.4
20260831202922 28 137 3.2 4.8 0.00 0.00 0.00 21 1010.5
20260831202418 27 189 4.8 6.4 0.00 0.00 0.00 21 1010.4
20260831201912 27 184 16.1 20.9 0.00 0.00 0.00 21 1010.6
20260831201410 27 136 3.2 3.2 0.00 0.00 0.00 22 1010.7
20260831200907 27 191 3.2 3.2 0.00 0.00 0.00 21 1010.7
20260831200402 27 141 0.0 1.6 0.00 0.00 0.00 22 1011.1
20260831195856 27 170 1.6 1.6 0.00 0.00 0.00 23 1010.7
20260831195352 27 133 0.0 1.6 0.00 0.00 0.00 23 1010.7
20260831194847 26 160 6.4 6.4 0.00 0.00 0.00 23 1011.1
20260831194343 25 145 3.2 4.8 0.00 0.00 0.00 24 1011.1
20260831193842 25 178 4.8 6.4 0.00 0.00 0.00 25 1011.3
20260831193337 25 139 6.4 9.7 0.00 0.00 0.00 26 1011.4
20260831192832 25 207 6.4 6.4 0.00 0.00 0.00 26 1011.4
20260831192332 25 168 1.6 3.2 0.00 0.00 0.00 27 1011.6
20260831191828 25 151 1.6 1.6 0.00 0.00 0.00 27 1011.8
20260831191324 24 159 3.2 6.4 0.00 0.00 0.00 28 1011.9
20260831190820 24 172 9.7 11.3 0.00 0.00 0.00 27 1011.9
20260831190319 24 157 3.2 4.8 0.00 0.00 0.00 27 1011.9
20260831185819 24 138 8.0 9.7 0.00 0.00 0.00 27 1012.1
20260831185315 24 140 3.2 3.2 0.00 0.00 0.00 28 1012.1
20260831184814 24 156 6.4 6.4 0.00 0.00 0.00 28 1012.1
20260831184309 23 177 1.6 1.6 0.00 0.00 0.00 29 1012.4
20260831183805 23 138 1.6 3.2 0.00 0.00 0.00 29 1012.2
20260831183304 22 149 1.6 3.2 0.00 0.00 0.00 31 1012.3
20260831182803 22 178 4.8 4.8 0.00 0.00 0.00 30 1012.3
20260831182258 22 160 1.6 1.6 0.00 0.00 0.00 31 1012.5
20260831181753 21 121 0.0 0.0 0.00 0.00 0.00 32 1012.5
20260831181249 22 143 4.8 6.4 0.00 0.00 0.00 31 1012.7
20260831180748 21 77 3.2 4.8 0.00 0.00 0.00 33 1012.9
20260831180238 21 180 4.8 6.4 0.00 0.00 0.00 33 1012.7
20260831175737 20 105 1.6 3.2 0.00 0.00 0.00 34 1012.9
20260831175234 20 118 1.6 1.6 0.00 0.00 0.00 35 1013.2
20260831174729 20 140 0.0 1.6 0.00 0.00 0.00 33 1013.0
20260831174225 20 108 0.0 0.0 0.00 0.00 0.00 34 1013.2
20260831173723 20 103 1.6 3.2 0.00 0.00 0.00 34 1013.1
20260831173212 19 133 1.6 1.6 0.00 0.00 0.00 35 1013.3
20260831172707 19 125 3.2 3.2 0.00 0.00 0.00 35 1013.3
20260831172202 19 98 3.2 3.2 0.00 0.00 0.00 34 1013.2
20260831171657 18 119 0.0 0.0 0.00 0.00 0.00 37 1013.4
20260831171154 17 117 1.6 3.2 0.00 0.00 0.00 38 1013.7
20260831170650 18 141 3.2 4.8 0.00 0.00 0.00 38 1013.6
20260831170147 17 141 1.6 1.6 0.00 0.00 0.00 39 1013.7
20260831165643 17 108 0.0 1.6 0.00 0.00 0.00 39 1013.5
20260831165139 16 95 0.0 0.0 0.00 0.00 0.00 41 1014.0
20260831164635 16 74 1.6 3.2 0.00 0.00 0.00 43 1013.7
20260831164130 16 126 0.0 0.0 0.00 0.00 0.00 42 1013.9
20260831163625 16 116 0.0 0.0 0.00 0.00 0.00 43 1014.2
20260831163121 16 125 0.0 0.0 0.00 0.00 0.00 43 1014.0
20260831162620 15 114 0.0 0.0 0.00 0.00 0.00 45 1014.0
20260831162118 14 143 1.6 1.6 0.00 0.00 0.00 47 1014.0
20260831161614 13 114 0.0 0.0 0.00 0.00 0.00 48 1014.3
20260831161111 13 92 1.6 1.6 0.00 0.00 0.00 48 1014.3
20260831160609 12 109 0.0 1.6 0.00 0.00 0.00 51 1014.4
20260831160105 12 136 0.0 1.6 0.00 0.00 0.00 50 1014.4
20260831155559 12 140 0.0 0.0 0.00 0.00 0.00 50 1014.5
20260831155055 11 129 0.0 1.6 0.00 0.00 0.00 53 1014.5
20260831154551 11 135 0.0 0.0 0.00 0.00 0.00 51 1014.5
20260831154050 12 121 0.0 0.0 0.00 0.00 0.00 51 1014.6
20260831153549 11 141 0.0 0.0 0.00 0.00 0.00 52 1014.6
20260831153047 11 132 0.0 0.0 0.00 0.00 0.00 54 1014.7
20260831152542 11 118 0.0 0.0 0.00 0.00 0.00 57 1014.7
20260831152037 10 104 0.0 1.6 0.00 0.00 0.00 56 1014.7
20260831151531 9 122 0.0 0.0 0.00 0.00 0.00 61 1014.7
20260831151031 8 140 0.0 0.0 0.00 0.00 0.00 62 1014.8
20260831150526 8 94 1.6 1.6 0.00 0.00 0.00 64 1014.5
20260831150023 7 133 0.0 0.0 0.00 0.00 0.00 65 1014.6
20260831145517 7 114 1.6 1.6 0.00 0.00 0.00 66 1014.5
20260831145013 7 100 1.6 1.6 0.00 0.00 0.00 68 1014.8
20260831144508 7 118 0.0 1.6 0.00 0.00 0.00 68 1014.7
20260831144004 6 126 0.0 0.0 0.00 0.00 0.00 71 1014.7
20260831143458 6 108 1.6 1.6 0.00 0.00 0.00 71 1014.5
20260831142953 5 113 0.0 0.0 0.00 0.00 0.00 73 1014.5
20260831142450 5 143 0.0 0.0 0.00 0.00 0.00 76 1014.5
20260831141944 5 143 0.0 0.0 0.00 0.00 0.00 77 1014.7
20260831141443 5 120 0.0 0.0 0.00 0.00 0.00 74 1014.4
20260831140938 4 120 0.0 0.0 0.00 0.00 0.00 77 1014.5
20260831140433 3 120 0.0 0.0 0.00 0.00 0.00 78 1014.4
20260831135932 3 115 0.0 0.0 0.00 0.00 0.00 78 1014.3
20260831135431 3 120 0.0 0.0 0.00 0.00 0.00 78 1014.2
20260831134926 3 129 0.0 0.0 0.00 0.00 0.00 78 1014.2
20260831134423 3 137 0.0 0.0 0.00 0.00 0.00 79 1014.2
20260831133922 2 136 0.0 0.0 0.00 0.00 0.00 80 1014.2
20260831133417 2 140 0.0 0.0 0.00 0.00 0.00 80 1013.9
20260831132912 2 132 0.0 0.0 0.00 0.00 0.00 81 1014.0
20260831132408 2 132 0.0 0.0 0.00 0.00 0.00 81 1014.0
20260831131907 2 125 0.0 0.0 0.00 0.00 0.00 81 1014.2
20260831131402 2 125 0.0 0.0 0.00 0.00 0.00 81 1014.0
20260831130858 2 126 0.0 0.0 0.00 0.00 0.00 81 1013.9
20260831130353 2 125 0.0 0.0 0.00 0.00 0.00 81 1013.9
20260831125852 2 127 0.0 0.0 0.00 0.00 0.00 82 1014.0
20260831125348 2 98 1.6 1.6 0.00 0.00 0.00 82 1014.0
20260831124843 3 145 0.0 0.0 0.00 0.00 0.00 82 1014.0
20260831124339 3 147 0.0 0.0 0.00 0.00 0.00 81 1014.3
20260831123838 3 142 0.0 0.0 0.00 0.00 0.00 82 1014.2
20260831123337 2 140 0.0 0.0 0.00 0.00 0.00 83 1013.9
20260831122832 2 138 0.0 0.0 0.00 0.00 0.00 82 1014.0
20260831122328 2 144 0.0 0.0 0.00 0.00 0.00 82 1013.9
20260831121828 3 146 0.0 1.6 0.00 0.00 0.00 81 1013.9
20260831121324 3 123 0.0 0.0 0.00 0.00 0.00 79 1013.9
20260831120820 3 122 0.0 0.0 0.00 0.00 0.00 78 1013.8
20260831120313 3 121 0.0 0.0 0.00 0.00 0.00 77 1013.9
20260831115809 3 117 0.0 0.0 0.00 0.00 0.00 77 1013.8
20260831115306 3 89 1.6 1.6 0.00 0.00 0.00 77 1013.8
20260831114804 3 102 0.0 0.0 0.00 0.00 0.00 76 1013.8
20260831114259 3 178 1.6 1.6 0.00 0.00 0.00 76 1013.9
20260831113754 3 149 1.6 1.6 0.00 0.00 0.00 76 1013.8
20260831113248 3 155 1.6 1.6 0.00 0.00 0.00 76 1013.8
20260831112747 3 145 0.0 0.0 0.00 0.00 0.00 75 1014.0
20260831112243 3 115 0.0 0.0 0.00 0.00 0.00 76 1014.0
20260831111738 3 115 0.0 0.0 0.00 0.00 0.00 77 1013.8
20260831111235 3 118 0.0 0.0 0.00 0.00 0.00 77 1013.8
20260831110730 3 129 0.0 0.0 0.00 0.00 0.00 77 1013.8
20260831110225 4 130 0.0 0.0 0.00 0.00 0.00 76 1014.0
20260831105723 4 129 0.0 0.0 0.00 0.00 0.00 77 1014.2
20260831105219 4 131 1.6 1.6 0.00 0.00 0.00 78 1013.9
20260831104714 4 117 0.0 0.0 0.00 0.00 0.00 79 1013.9
20260831104211 4 131 0.0 0.0 0.00 0.00 0.00 78 1014.0
20260831103710 4 133 0.0 0.0 0.00 0.00 0.00 76 1013.9
20260831103206 4 147 0.0 0.0 0.00 0.00 0.00 76 1013.9
20260831102701 4 147 0.0 0.0 0.00 0.00 0.00 75 1013.8
20260831102200 4 147 0.0 0.0 0.00 0.00 0.00 75 1014.2
20260831101656 5 147 0.0 0.0 0.00 0.00 0.00 75 1013.9
20260831101152 5 147 0.0 0.0 0.00 0.00 0.00 77 1014.0
20260831100648 5 147 0.0 0.0 0.00 0.00 0.00 78 1014.2
20260831100144 5 147 0.0 0.0 0.00 0.00 0.00 77 1014.2
20260831095641 5 147 0.0 0.0 0.00 0.00 0.00 77 1014.2
20260831095137 5 147 0.0 0.0 0.00 0.00 0.00 76 1014.2
20260831094632 5 147 0.0 0.0 0.00 0.00 0.00 77 1013.9
20260831094128 5 148 1.6 1.6 0.00 0.00 0.00 76 1014.2
20260831093623 5 114 0.0 0.0 0.00 0.00 0.00 73 1014.2
20260831093119 5 114 0.0 0.0 0.00 0.00 0.00 73 1014.4
20260831092615 5 114 0.0 0.0 0.00 0.00 0.00 72 1014.3
20260831092111 5 114 0.0 0.0 0.00 0.00 0.00 72 1014.4
20260831091610 5 114 0.0 0.0 0.00 0.00 0.00 71 1014.0
20260831091106 5 114 0.0 0.0 0.00 0.00 0.00 71 1014.3
20260831090601 5 114 0.0 0.0 0.00 0.00 0.00 70 1014.2
20260831090057 6 114 0.0 0.0 0.00 0.00 0.00 71 1014.4
20260831085552 6 116 0.0 0.0 0.00 0.00 0.00 70 1014.4
20260831085047 6 119 0.0 0.0 0.00 0.00 0.00 71 1014.4
20260831084544 6 125 0.0 0.0 0.00 0.00 0.00 70 1014.5
20260831084040 6 128 0.0 0.0 0.00 0.00 0.00 70 1014.4
20260831083536 6 127 0.0 0.0 0.00 0.00 0.00 70 1014.5
20260831083036 6 132 0.0 0.0 0.00 0.00 0.00 69 1014.3
20260831082529 6 120 0.0 0.0 0.00 0.00 0.00 69 1014.5
20260831082019 7 141 0.0 0.0 0.00 0.00 0.00 70 1014.5
20260831081514 6 142 0.0 0.0 0.00 0.00 0.00 72 1014.6
20260831081010 7 142 0.0 0.0 0.00 0.00 0.00 71 1014.6
20260831080504 7 142 0.0 0.0 0.00 0.00 0.00 70 1014.5
20260831080000 7 142 0.0 0.0 0.00 0.00 0.00 69 1014.4
20260831075455 7 129 0.0 0.0 0.00 0.00 0.00 70 1014.6
20260831074950 7 129 0.0 0.0 0.00 0.00 0.00 70 1014.7
20260831074444 7 128 0.0 0.0 0.00 0.00 0.00 70 1014.5
20260831073938 7 129 0.0 0.0 0.00 0.00 0.00 70 1014.5
20260831073433 7 128 0.0 0.0 0.00 0.00 0.00 70 1014.4
20260831072927 7 128 0.0 0.0 0.00 0.00 0.00 70 1014.6
20260831072423 8 125 0.0 0.0 0.00 0.00 0.00 66 1014.6
20260831071920 8 122 0.0 0.0 0.00 0.00 0.00 65 1014.6
20260831071418 8 119 0.0 0.0 0.00 0.00 0.00 63 1014.7
20260831070918 8 123 0.0 0.0 0.00 0.00 0.00 62 1014.7
20260831070417 8 103 1.6 1.6 0.00 0.00 0.00 63 1014.3
20260831065917 8 136 0.0 0.0 0.00 0.00 0.00 64 1014.5
20260831065415 8 130 0.0 0.0 0.00 0.00 0.00 61 1014.6
20260831064910 9 145 0.0 0.0 0.00 0.00 0.00 60 1014.4
20260831064405 9 148 0.0 0.0 0.00 0.00 0.00 59 1014.4
20260831063901 9 144 0.0 0.0 0.00 0.00 0.00 59 1014.4
20260831063355 9 144 0.0 0.0 0.00 0.00 0.00 59 1014.4
20260831062850 9 94 0.0 0.0 0.00 0.00 0.00 60 1014.3
20260831062345 9 101 0.0 0.0 0.00 0.00 0.00 59 1014.5
20260831061843 9 146 0.0 0.0 0.00 0.00 0.00 58 1014.2
20260831061342 9 110 0.0 0.0 0.00 0.00 0.00 58 1014.4
20260831060839 10 113 0.0 0.0 0.00 0.00 0.00 58 1014.6
20260831060334 10 115 0.0 0.0 0.00 0.00 0.00 57 1014.6
20260831055833 10 132 0.0 0.0 0.00 0.00 0.00 56 1014.7
20260831055328 10 134 0.0 0.0 0.00 0.00 0.00 57 1014.7
20260831054823 10 145 0.0 0.0 0.00 0.00 0.00 59 1014.5
20260831054319 10 145 0.0 0.0 0.00 0.00 0.00 56 1014.4
20260831053817 10 151 0.0 0.0 0.00 0.00 0.00 55 1014.5
20260831053311 11 143 0.0 0.0 0.00 0.00 0.00 54 1014.6
20260831052805 11 112 0.0 0.0 0.00 0.00 0.00 54 1014.7
20260831052306 11 146 0.0 0.0 0.00 0.00 0.00 55 1014.6
20260831051802 11 146 0.0 0.0 0.00 0.00 0.00 55 1014.6
20260831051256 11 147 0.0 0.0 0.00 0.00 0.00 54 1014.7
20260831050751 11 121 0.0 0.0 0.00 0.00 0.00 53 1014.8
20260831050250 12 132 0.0 0.0 0.00 0.00 0.00 53 1014.6
20260831045744 12 141 0.0 0.0 0.00 0.00 0.00 51 1014.5
20260831045238 12 139 0.0 0.0 0.00 0.00 0.00 51 1014.7
20260831044733 12 138 0.0 0.0 0.00 0.00 0.00 51 1014.6
20260831044223 12 154 0.0 0.0 0.00 0.00 0.00 51 1014.5
20260831043719 13 140 0.0 0.0 0.00 0.00 0.00 49 1014.5
20260831043213 13 140 0.0 0.0 0.00 0.00 0.00 48 1014.6
20260831042713 13 139 0.0 0.0 0.00 0.00 0.00 48 1014.4
20260831042208 14 190 3.2 3.2 0.00 0.00 0.00 47 1014.7
20260831041702 13 158 0.0 0.0 0.00 0.00 0.00 47 1014.7
20260831041156 14 150 0.0 0.0 0.00 0.00 0.00 47 1014.5
20260831040652 14 105 0.0 0.0 0.00 0.00 0.00 46 1014.4
20260831040150 15 151 0.0 0.0 0.00 0.00 0.00 45 1014.3
20260831035649 15 151 0.0 0.0 0.00 0.00 0.00 44 1014.6
20260831035144 15 156 0.0 0.0 0.00 0.00 0.00 43 1014.5
20260831034643 16 145 0.0 0.0 0.00 0.00 0.00 43 1014.2
20260831034138 16 130 0.0 0.0 0.00 0.00 0.00 42 1014.3
20260831033634 16 150 0.0 0.0 0.00 0.00 0.00 41 1013.9
20260831033129 16 154 0.0 0.0 0.00 0.00 0.00 40 1014.2
20260831032628 16 154 0.0 0.0 0.00 0.00 0.00 39 1014.0
20260831032124 16 124 0.0 0.0 0.00 0.00 0.00 41 1013.9
20260831031619 16 123 0.0 0.0 0.00 0.00 0.00 40 1013.8
20260831031118 17 159 1.6 1.6 0.00 0.00 0.00 41 1013.7
20260831030617 17 150 0.0 0.0 0.00 0.00 0.00 39 1013.6
20260831030116 17 137 0.0 0.0 0.00 0.00 0.00 38 1013.7
20260831025615 18 163 0.0 0.0 0.00 0.00 0.00 37 1013.5
20260831025110 18 145 0.0 0.0 0.00 0.00 0.00 36 1013.6
20260831024606 18 111 0.0 0.0 0.00 0.00 0.00 35 1013.2
20260831024104 18 204 0.0 1.6 0.00 0.00 0.00 36 1013.4
20260831023603 19 112 0.0 0.0 0.00 0.00 0.00 35 1013.4
20260831023102 20 100 1.6 1.6 0.00 0.00 0.00 34 1013.2
20260831022557 20 109 3.2 3.2 0.00 0.00 0.00 34 1013.3
20260831022052 20 102 0.0 1.6 0.00 0.00 0.00 34 1013.2
20260831021551 20 87 1.6 1.6 0.00 0.00 0.00 34 1013.1
20260831021047 20 85 1.6 1.6 0.00 0.00 0.00 33 1013.0
20260831020542 21 32 3.2 4.8 0.00 0.00 0.00 32 1013.4
20260831020037 21 101 1.6 3.2 0.00 0.00 0.00 31 1013.1
20260831015532 21 65 1.6 3.2 0.00 0.00 0.00 31 1013.1
20260831015022 22 88 0.0 1.6 0.00 0.00 0.00 29 1013.4
20260831014522 22 217 1.6 1.6 0.00 0.00 0.00 29 1013.4
20260831014018 23 258 4.8 6.4 0.00 0.00 0.00 29 1013.3
20260831013514 23 155 0.0 1.6 0.00 0.00 0.00 28 1013.2
20260831013014 23 103 1.6 3.2 0.00 0.00 0.00 28 1013.3
20260831012508 23 180 1.6 1.6 0.00 0.00 0.00 27 1013.3
20260831012003 23 66 3.2 3.2 0.00 0.00 0.00 27 1013.5
20260831011457 23 211 3.2 3.2 0.00 0.00 0.00 27 1013.3
20260831010953 23 71 1.6 1.6 0.00 0.00 0.00 27 1013.2
20260831010453 23 164 1.6 3.2 0.00 0.00 0.00 26 1013.4
20260831005949 23 315 4.8 4.8 0.00 0.00 0.00 26 1013.2
20260831005445 24 203 3.2 4.8 0.00 0.00 0.00 25 1013.3
20260831004944 23 291 6.4 6.4 0.00 0.00 0.00 25 1013.3
20260831004440 25 173 4.8 4.8 0.00 0.00 0.00 25 1013.4
20260831003936 25 118 1.6 1.6 0.00 0.00 0.00 24 1013.2
20260831003432 25 213 0.0 1.6 0.00 0.00 0.00 24 1013.3
20260831002931 25 156 0.0 1.6 0.00 0.00 0.00 24 1013.2
20260831002430 25 176 1.6 3.2 0.00 0.00 0.00 24 1013.3
20260831001926 25 142 0.0 0.0 0.00 0.00 0.00 24 1013.5
20260831001421 23 155 0.0 0.0 0.00 0.00 0.00 25 1013.4
20260831000919 25 254 3.2 4.8 0.00 0.00 0.00 25 1013.3
20260831000414 24 135 0.0 0.0 0.00 0.00 0.00 25 1013.3
20260830235912 24 324 3.2 4.8 0.00 0.00 0.00 25 1013.3
20260830235407 24 156 4.8 4.8 0.00 0.00 0.00 25 1013.5
20260830234903 25 161 3.2 3.2 0.00 0.00 0.00 25 1013.2
20260830234357 23 167 3.2 4.8 0.00 0.00 0.00 27 1013.3
20260830233853 24 185 8.0 11.3 0.00 0.00 0.00 26 1013.4
20260830233348 25 168 3.2 4.8 0.00 0.00 0.00 25 1013.4
20260830232844 24 152 3.2 4.8 0.00 0.00 0.00 26 1013.6
20260830232339 24 206 4.8 6.4 0.00 0.00 0.00 26 1013.7
20260830231836 24 222 4.8 4.8 0.00 0.00 0.00 25 1013.7
20260830231336 24 227 6.4 6.4 0.00 0.00 0.00 26 1013.6
20260830230830 23 269 9.7 11.3 0.00 0.00 0.00 25 1013.7
20260830230325 23 173 1.6 3.2 0.00 0.00 0.00 27 1013.4
20260830225819 24 163 3.2 3.2 0.00 0.00 0.00 25 1013.7
20260830225314 24 182 3.2 3.2 0.00 0.00 0.00 25 1013.8
20260830224809 25 185 3.2 3.2 0.00 0.00 0.00 27 1013.9
20260830224303 24 247 4.8 4.8 0.00 0.00 0.00 27 1013.9
20260830223800 23 175 9.7 11.3 0.00 0.00 0.00 28 1013.7
20260830223255 23 173 9.7 12.9 0.00 0.00 0.00 29 1014.0
20260830222749 23 145 1.6 3.2 0.00 0.00 0.00 29 1013.9
20260830222246 23 175 4.8 6.4 0.00 0.00 0.00 28 1013.9
20260830221740 23 172 6.4 6.4 0.00 0.00 0.00 29 1014.2
20260830221238 23 142 1.6 1.6 0.00 0.00 0.00 29 1014.2
20260830220733 22 171 0.0 1.6 0.00 0.00 0.00 30 1014.2
20260830220231 22 138 3.2 6.4 0.00 0.00 0.00 30 1014.2
20260830215730 23 163 1.6 3.2 0.00 0.00 0.00 30 1014.5
20260830215225 22 189 0.0 0.0 0.00 0.00 0.00 30 1014.5
20260830214720 22 143 8.0 11.3 0.00 0.00 0.00 31 1014.6
20260830214215 22 67 4.8 4.8 0.00 0.00 0.00 31 1014.5
20260830213714 22 161 4.8 6.4 0.00 0.00 0.00 32 1014.7
20260830213209 22 162 6.4 9.7 0.00 0.00 0.00 31 1014.7
20260830212700 23 215 3.2 3.2 0.00 0.00 0.00 30 1015.0
20260830212155 23 150 3.2 4.8 0.00 0.00 0.00 32 1014.9
20260830211654 22 144 4.8 4.8 0.00 0.00 0.00 31 1014.7
20260830211153 22 177 4.8 4.8 0.00 0.00 0.00 33 1015.0
20260830210649 22 129 1.6 3.2 0.00 0.00 0.00 32 1015.0
20260830210148 21 151 3.2 6.4 0.00 0.00 0.00 32 1015.0
20260830205646 22 157 4.8 6.4 0.00 0.00 0.00 32 1015.1
20260830205141 21 150 4.8 4.8 0.00 0.00 0.00 32 1015.1
20260830204641 21 162 1.6 1.6 0.00 0.00 0.00 33 1015.6
20260830204140 22 137 3.2 4.8 0.00 0.00 0.00 32 1015.3
20260830203636 21 152 3.2 4.8 0.00 0.00 0.00 33 1015.1